ATLAS AGENA D R/B, 2144

Orbit data source: Space-Track

ATLAS AGENA D R/B, 2144 is space debris in LEO originally from a launch on Fri, 08 Apr 1966 UTC launched from the Air Force Eastern Test Range (AFETR). Debris objects in space refer to the collection of defunct objects orbiting the Earth. Examples of debris include non-operational satellites, rocket bodies, and fragments generated from explosions, collisions, or faulty payload assembly.

Loading next visibility...
Identifier
2144, 1966-031B
Orbit
LEO
Country
Flag of USUS
Related business
Manufacturer
LMSC
Mission
Spacecraft
Bus & Motor
AGENA D, Unknown motor
Mass
769 kg wet, 769 kg dry
Launch date (UTC)
1966-04-08 (60 years ago)
Launch vehicle
Unknown
Launch site
Air Force Eastern Test Range (AFETR)
Object type
Payload
Rocket body
Debris
Shape & HBR
Unknown
Radar Cross Section
Large (>1 m²)

Expand to show TLE details & history
Last TLE update: 8 hours ago

TLE from 8 hours ago
0 ATLAS AGENA D R/B
1 02144U 66031B   25288.64061820  .00000640  00000-0  18753-3 0  9996
2 02144  35.0417 258.9530 0008502 226.9709 133.0270 14.44720028127384
Epoch: 2025-10-15T15:22Z
TLE epoch observation values (Epoch: 2025-10-15T15:22:29.412Z)
Latitude
-0.00001°
Longitude
3.91865°
Altitude
746.028 km
Speed
7.482 km/s
True Right ascension
17h 15m 48s
True Declination
0° 00' 00"
Sunlit
Object was in daylight at epoch
Visualization orbit readout
Latitude
Unknown
Longitude
Unknown
Altitude
Unknown
Speed
Unknown
Apparent Right ascension
Unknown
Apparent Declination
Unknown
Sunlit
N/A
Visualization observer readout
Local Sidereal Time
17:42:36
Azimuth
Unknown
Elevation
Unknown
Doppler factor
Unknown
Orbital elements
Apogee altitude
752.135 km
Perigee altitude
740.021 km
Semi-major axis
7,124.215 km
Eccentricity
0.00085
Inclination
35.0417°
RAAN
258.953°
Arg. of periapsis
226.9709°
True anomaly
133.09817°
Mean anomaly
133.027°
Eccentric anomaly
133.06259°
Mean motion
3.60942 °/min
Orbital period
99.74 mins
BSTAR
0.00018753
Loading maneuver chart data...
Computing Atmospheric mass density...
Loading historical data...
Loading historical data...
Loading historical data...
Loading historical data...
Loading historical data...
Loading historical data...
Loading historical data...
Other satellites on launch #31 in the year 1966 (1966-04-08 UTC)

Documentation

Showing up to 5 results
|